Regional Weather Roundup
Issued by NWS

Home | Current Version | Previous Version | Graphics & Text | Print | Product List | Glossary On
Versions: 1 2 3 4 5 6 7 8 9 10 11 12 13 14 15 16 17 18 19 20 21 22 23 24 25 26 27
000
ASUS45 KSLC 201010
RWRUT

UTAH REGIONAL WEATHER ROUNDUP
NATIONAL WEATHER SERVICE SALT LAKE CITY UT
400 AM MDT SUN AUG 20 2017

UTZ001>011-023>025-201100-

NORTHERN UTAH

CITY           SKY/WX    TMP DP  RH WIND       PRES   REMARKS
BRIGHAM CITY     N/A     62  40  45 CALM      30.01S
HILL AFB         N/A     69  36  29 E14       30.03S
LOGAN            N/A     58  42  55 CALM      30.04R
OGDEN            N/A     69  38  32 S10       30.00R
SALT LAKE CITY   N/A     74  43  32 S7        29.99R
TOOELE VALLEY    N/A     68  37  32 SW5       30.00S
WENDOVER         N/A     75  32  20 NE10      30.01R
HEBER CITY       N/A     52  43  71 CALM      30.12S
WEST JORDAN      N/A     72  51  48 SW8       30.03S

$$

UTZ011>015-024>027-201100-

CENTRAL/NORTHEAST UTAH

CITY           SKY/WX    TMP DP  RH WIND       PRES   REMARKS
PROVO AIRPORT    N/A     65  46  50 E6        30.03F
MOAB/CANYONLAN   N/A     75  35  23 CALM      30.01R
DELTA            N/A     64  34  32 S5        30.05S
PRICE            N/A     61  39  44 SE5       30.14R
ROOSEVELT      CLEAR     59  45  58 CALM      30.11S
VERNAL         CLEAR     59  41  51 N3        30.10R

$$

UTZ013>016-019>022-027-201100-

SOUTHERN UTAH

CITY           SKY/WX    TMP DP  RH WIND       PRES   REMARKS
BRYCE CANYON     N/A     49  36  61 W8        30.30S
CEDAR CITY       N/A     60  38  43 CALM      30.14S
MILFORD          N/A     61  36  39 S7        30.08F
ST GEORGE        N/A     77  41  27 E9        29.95S
HANKSVILLE       N/A     63  32  31 CALM      30.04S
BLANDING         N/A     68  35  28 N7        30.18S

$$

REGIONAL REPORTS     COLORADO/ARIZONA

CITY           SKY/WX    TMP DP  RH WIND       PRES   REMARKS
CRAIG, CO      CLEAR     47  37  68 CALM      30.19R
GRAND JUNCTION CLOUDY    64  39  39 SE10      30.07R
RIFLE, CO      CLEAR     53  37  54 CALM      30.16R
MONTROSE, CO   CLEAR     59  39  47 S6        30.17R
CORTEZ, CO     PTCLDY    60  40  47 N6        30.14S
COLORADO CITY    N/A     55  45  67 E6        30.13S
PAGE, AZ         N/A     80  37  21 NW3       30.02R
GRAND CANYON     N/A     48  38  68 CALM      30.25R
KINGMAN, AZ      N/A     75  46  35 SE9       29.99F
FLAGSTAFF, AZ  CLOUDY    57  45  64 W5        30.27S

$$

REGIONAL REPORTS    NEVADA/IDAHO/WYOMING

CITY           SKY/WX    TMP DP  RH WIND       PRES   REMARKS
LAS VEGAS, NV    N/A     85  44  23 S3        29.86S
ELY, NY          N/A     51  33  50 S13       30.16S
ELKO, NV         N/A     52  36  54 CALM      30.08R
POCATELLO, ID  CLOUDY    67  31  26 SW14      30.06R
BURLEY, ID       N/A     60  37  42 SW6       30.04R
FORT BRIDGER,    N/A     59  34  39 W9        30.24S
EVANSTON, WY   CLEAR     61  37  41 S5        30.22S
ROCK SPRINGS,  CLOUDY    60  33  36 CALM      30.19R

$$




USA.gov is the U.S. government's official web portal to all federal, state and local government web resources and services.